Wind_Speed
37 37 37 37 37 37 37 37 36 36 36 36 35 34 34 33 33 32 31 31 31 30 30 30 29 29 28 26 26 26 26 25 24 23 23 22 22 22 22 21 21 20 20
40 40 40 40 40 39 39 39 38 38 39 38 38 37 36 36 35 34 34 33 33 33 32 31 31 30 29 28 28 27 27 27 26 25 24 24 24 24 24 23 23 22 22
43 42 42 42 43 42 42 41 41 41 41 41 40 39 39 38 38 37 36 36 35 35 34 34 33 33 32 31 30 29 28 27 27 27 26 26 26 25 25 25 25 24 24
46 44 44 45 45 44 44 43 44 43 43 43 42 42 41 41 40 40 39 38 37 37 36 36 36 35 35 34 33 32 31 30 29 28 28 28 27 27 27 27 26 26 26
48 47 46 47 47 47 46 45 45 45 45 45 44 44 44 43 42 42 41 40 39 39 38 38 38 38 37 37 36 35 34 33 32 31 31 30 29 28 28 28 28 28 28
50 50 49 49 49 49 49 48 47 47 47 47 47 47 47 46 45 44 44 43 42 41 40 40 40 40 39 39 38 37 36 36 35 34 33 32 32 31 30 30 30 30 29
52 52 52 51 51 50 50 49 49 49 49 49 49 49 49 49 48 47 47 46 45 44 43 42 42 41 41 41 40 40 39 38 37 36 36 35 34 33 32 31 31 31 31
53 53 53 52 52 52 52 52 51 50 50 51 51 51 51 51 51 49 49 48 48 47 46 44 43 43 43 42 42 42 41 40 40 39 38 37 36 35 34 33 33 33 32
53 53 53 53 52 53 53 54 54 53 51 51 52 53 53 52 53 52 51 50 50 49 49 48 46 45 44 44 44 43 43 42 41 41 40 39 39 38 37 36 35 35 34
52 52 52 53 53 54 54 54 54 54 53 53 53 54 54 54 55 54 54 52 52 51 50 50 49 48 47 46 45 45 45 44 43 42 42 41 41 40 39 39 38 37 36
52 52 52 53 53 53 53 54 54 54 54 54 54 54 55 55 56 56 56 55 54 53 53 52 52 51 49 48 47 47 47 46 45 45 44 43 43 42 41 41 40 39 39
51 51 52 52 52 53 53 54 55 55 55 55 55 54 54 55 56 56 56 56 56 55 55 54 54 54 53 51 50 50 49 48 48 47 46 46 45 43 43 43 43 42 41
51 51 52 53 54 54 54 54 55 56 56 56 56 55 55 56 56 56 57 57 58 57 56 56 55 55 54 54 53 52 52 50 50 49 48 48 47 46 45 45 44 43 42
51 51 51 52 53 54 55 55 55 56 56 57 56 56 56 56 56 57 57 58 58 58 57 56 55 56 55 54 54 54 54 53 53 52 52 51 50 49 48 47 46 45 44
50 50 51 52 53 54 55 56 56 56 56 56 56 56 56 55 56 56 57 58 59 59 57 56 56 55 54 54 54 54 54 55 55 55 54 53 53 51 50 48 47 47 46
49 50 51 51 51 51 52 54 55 56 56 56 56 56 56 56 56 57 57 58 58 58 58 56 56 56 55 55 55 54 54 54 54 55 54 54 53 53 52 51 50 49 48
49 49 50 50 50 50 51 52 53 54 55 56 57 57 57 56 57 57 58 58 58 58 58 57 56 56 56 56 55 55 54 54 54 54 54 54 54 53 52 52 51 51 50
48 48 49 49 50 50 51 51 52 53 54 55 56 56 57 57 57 57 58 58 59 59 59 60 59 57 57 56 56 56 55 55 54 53 53 54 53 52 52 52 52 52 51
47 46 47 47 48 49 50 51 52 52 53 54 54 54 55 56 57 57 58 58 59 60 60 60 59 59 58 56 56 55 56 55 54 53 52 52 53 53 52 53 52 52 52
45 45 45 45 46 48 48 49 50 50 51 52 52 52 53 54 55 56 57 57 59 60 61 60 60 59 59 58 57 56 56 56 54 54 54 54 54 53 53 53 53 53 53
44 44 44 44 45 46 47 47 48 49 50 50 51 51 51 52 53 54 55 56 57 58 59 60 59 59 59 59 58 56 57 56 56 55 55 55 55 55 55 54 54 53 54
44 44 44 44 44 45 46 47 47 47 48 49 50 51 51 51 52 52 53 54 55 56 57 58 58 58 58 58 57 57 56 56 56 55 56 56 56 55 55 55 55 54 54
42 43 43 44 44 44 45 45 46 47 48 49 50 51 51 51 51 51 52 53 54 55 55 56 57 56 55 56 56 56 56 57 57 56 57 57 56 56 55 55 55 55 54
41 41 42 43 44 44 44 44 44 45 46 47 47 48 49 50 50 50 51 52 53 53 53 54 54 53 53 53 54 55 56 57 57 57 57 57 56 56 56 56 56 55 54
39 40 40 41 42 43 43 43 43 42 43 43 44 45 47 48 49 49 50 51 51 52 52 53 53 53 52 52 53 54 55 56 56 56 56 56 56 55 55 55 55 55 54
37 38 38 38 40 40 41 41 42 41 40 41 42 43 44 46 47 49 49 48 48 48 49 49 51 52 52 53 53 53 54 55 55 54 54 54 55 55 55 55 54 54 54
Wind_Direction
260 259 259 260 258 257 256 255 253 251 250 250 249 247 247 246 246 246 245 246 246 247 247 248 248 249 250 252 254 255 254 255 256 257 257 258 258 259 261 262 265 266 267
260 260 259 259 258 258 257 255 254 252 250 250 249 248 247 247 247 247 247 247 248 248 248 249 250 251 251 251 252 254 255 254 256 257 258 259 259 259 261 262 264 267 267
261 260 259 258 258 257 257 255 254 253 251 250 249 248 247 247 247 247 247 248 248 249 249 250 250 251 252 251 252 254 255 256 256 257 257 258 259 260 261 262 264 266 267
260 261 259 258 257 256 256 255 254 253 252 251 249 247 247 247 246 247 248 248 248 249 250 250 250 251 252 252 253 254 255 256 257 257 257 259 260 261 261 262 264 266 267
261 260 259 257 256 255 255 254 253 252 252 251 249 248 248 248 248 247 248 249 249 250 250 250 251 251 252 252 253 254 255 256 257 257 257 259 259 261 262 262 263 264 265
260 260 259 258 257 256 255 255 253 252 252 251 250 249 248 248 248 249 249 249 249 250 250 250 251 252 252 252 253 254 255 256 257 257 257 258 259 261 262 262 262 262 263
261 261 260 259 257 257 255 255 254 253 252 251 250 250 249 248 248 249 249 249 249 249 250 250 251 252 252 253 253 253 254 255 256 257 257 258 259 260 261 262 262 263 263
260 261 261 259 259 257 255 255 255 254 253 251 250 249 249 248 248 248 249 249 249 249 249 250 251 252 253 253 253 253 254 254 255 256 257 258 259 260 261 261 261 262 264
261 260 259 259 258 258 257 255 255 254 253 252 251 249 249 248 248 248 248 248 248 248 249 249 250 251 252 253 253 253 253 254 254 255 256 257 258 259 260 260 260 261 263
260 260 259 258 258 258 257 255 255 254 253 252 252 251 250 250 249 248 248 248 248 248 249 249 250 250 251 252 253 253 253 254 254 255 255 256 257 258 259 259 259 261 263
260 259 259 259 258 258 257 256 255 254 254 253 253 252 251 251 251 250 249 248 248 248 248 249 249 250 250 251 252 252 253 253 254 255 255 256 257 257 259 258 259 261 262
259 258 258 258 258 258 258 256 256 255 255 254 254 253 253 252 251 250 250 249 249 248 248 248 249 250 250 251 252 252 252 253 253 254 255 256 256 257 258 258 259 261 263
259 258 258 258 258 258 258 257 256 256 256 255 254 253 253 253 252 251 250 249 249 249 249 249 249 249 250 251 251 252 252 252 252 253 254 255 256 256 258 259 260 262 263
259 259 258 258 258 257 257 257 256 256 255 255 254 254 253 253 252 252 251 250 249 249 248 248 248 249 250 250 251 252 252 252 252 253 254 255 255 256 258 259 260 261 262
260 259 259 258 258 258 257 256 256 255 254 254 253 253 253 252 252 251 251 250 250 249 248 249 248 248 250 251 251 251 252 252 253 253 254 255 255 256 257 258 259 261 261
261 261 260 259 259 258 257 257 256 256 255 254 253 253 253 252 252 251 251 250 250 250 249 247 248 248 250 251 251 250 251 251 252 253 254 254 254 255 256 257 258 260 260
263 262 262 260 259 257 257 257 256 256 256 255 254 254 253 252 252 251 251 250 250 249 248 247 248 248 249 250 250 250 250 251 251 253 253 253 253 254 255 257 258 259 260
263 263 262 261 260 258 258 259 258 257 256 256 255 254 253 252 252 251 251 250 250 249 249 248 248 249 249 249 249 249 249 250 251 251 252 252 253 254 255 256 258 259 259
264 263 261 260 259 259 258 259 259 259 258 256 255 254 253 252 252 251 251 250 250 249 248 248 248 248 249 249 249 248 249 250 250 250 251 252 253 253 255 257 257 259 259
264 262 262 261 259 258 258 258 259 258 258 256 255 255 254 253 252 251 251 250 249 248 248 247 246 247 248 248 248 248 248 249 249 250 251 252 253 254 255 256 257 259 260
264 264 262 261 260 259 259 260 259 259 257 256 255 254 254 254 253 252 251 250 249 248 247 247 246 246 247 247 247 247 248 248 249 250 251 252 253 255 255 256 257 259 260
264 264 263 261 261 260 260 260 259 259 258 256 255 254 253 253 253 253 252 250 249 248 247 246 246 246 246 246 246 247 247 247 249 250 252 253 253 254 255 256 257 258 260
265 264 263 261 260 260 260 259 259 259 258 257 256 255 253 253 253 253 252 251 250 249 248 247 246 246 245 246 247 248 248 248 249 250 251 253 254 254 255 257 258 258 260
266 265 263 262 261 261 260 259 259 259 259 257 255 254 253 252 252 252 252 251 250 249 248 247 246 245 245 245 246 247 248 249 249 250 252 253 254 256 256 258 259 259 260
268 267 264 262 262 261 260 259 258 259 258 256 255 254 253 252 251 251 251 251 251 249 247 246 246 244 244 245 246 246 247 249 250 251 253 254 254 256 256 257 259 259 260
270 268 266 265 263 262 259 258 258 257 257 255 255 254 253 252 250 250 250 249 248 247 247 246 246 244 244 244 245 247 248 249 249 251 252 254 255 256 256 256 257 258 260
Height
5782 5782 5783 5784 5784 5785 5786 5788 5789 5790 5792 5793 5795 5797 5799 5801 5803 5804 5806 5808 5810 5811 5813 5814 5815 5816 5818 5819 5820 5821 5822 5823 5823 5824 5825 5825 5826 5827 5827 5827 5828 5828 5828
5772 5773 5774 5774 5775 5776 5777 5778 5779 5781 5783 5784 5787 5789 5791 5793 5795 5797 5799 5801 5803 5804 5806 5807 5809 5810 5811 5813 5814 5815 5816 5817 5818 5819 5820 5820 5821 5822 5822 5822 5823 5823 5823
5762 5762 5763 5764 5765 5766 5767 5768 5770 5771 5773 5775 5777 5780 5782 5784 5786 5789 5791 5793 5795 5797 5799 5800 5802 5803 5805 5806 5807 5809 5810 5811 5812 5813 5814 5815 5815 5816 5816 5817 5817 5818 5818
5750 5751 5752 5753 5754 5755 5756 5758 5759 5761 5763 5765 5767 5770 5772 5775 5777 5780 5782 5784 5787 5789 5791 5792 5794 5796 5797 5799 5800 5801 5803 5804 5805 5806 5807 5808 5809 5810 5810 5811 5811 5812 5812
5738 5739 5739 5741 5742 5743 5744 5746 5748 5750 5752 5754 5757 5759 5762 5764 5767 5770 5772 5775 5777 5780 5782 5784 5786 5788 5789 5791 5792 5794 5795 5797 5798 5799 5800 5801 5802 5803 5804 5804 5805 5805 5805
5724 5725 5727 5728 5729 5731 5732 5734 5736 5737 5740 5742 5745 5748 5751 5754 5756 5759 5762 5765 5768 5770 5772 5775 5777 5778 5780 5782 5784 5786 5787 5789 5790 5791 5793 5794 5795 5796 5797 5797 5798 5798 5799
5711 5712 5713 5714 5716 5718 5719 5721 5723 5725 5727 5730 5733 5736 5739 5742 5745 5748 5751 5754 5757 5760 5762 5764 5767 5769 5771 5773 5775 5777 5778 5780 5782 5783 5784 5786 5787 5788 5789 5790 5791 5791 5792
5697 5698 5699 5700 5702 5704 5706 5708 5710 5712 5714 5716 5719 5722 5726 5730 5733 5736 5739 5742 5745 5748 5751 5753 5756 5759 5761 5763 5765 5767 5769 5771 5772 5774 5776 5777 5779 5780 5781 5782 5783 5784 5784
5682 5683 5685 5686 5688 5690 5692 5694 5696 5698 5701 5703 5705 5709 5712 5716 5720 5723 5726 5729 5733 5736 5739 5742 5745 5747 5750 5752 5755 5757 5759 5761 5763 5765 5766 5768 5770 5771 5773 5774 5775 5775 5776
5667 5668 5670 5672 5673 5675 5677 5680 5682 5684 5686 5689 5692 5694 5698 5702 5705 5710 5713 5716 5720 5724 5727 5730 5733 5735 5738 5741 5743 5746 5748 5750 5753 5754 5756 5758 5760 5761 5763 5764 5766 5766 5767
5653 5654 5656 5657 5659 5661 5663 5665 5667 5670 5672 5675 5678 5680 5683 5687 5690 5695 5699 5703 5706 5710 5713 5717 5720 5723 5725 5728 5731 5734 5737 5739 5741 5744 5746 5748 5750 5751 5753 5754 5756 5757 5758
5639 5640 5641 5643 5645 5646 5649 5651 5653 5655 5657 5660 5663 5666 5668 5672 5676 5679 5684 5688 5692 5696 5699 5703 5706 5710 5713 5715 5719 5722 5724 5727 5730 5732 5734 5737 5739 5740 5742 5744 5745 5747 5748
5625 5626 5627 5628 5630 5632 5634 5636 5638 5640 5643 5645 5648 5651 5653 5657 5660 5664 5668 5673 5677 5681 5684 5688 5692 5696 5699 5702 5705 5708 5711 5714 5717 5720 5722 5725 5727 5729 5731 5733 5734 5735 5737
5610 5611 5613 5614 5615 5617 5619 5621 5623 5625 5627 5630 5632 5635 5638 5641 5644 5648 5652 5656 5661 5666 5670 5674 5677 5681 5684 5688 5691 5694 5697 5701 5704 5707 5710 5713 5715 5717 5719 5721 5723 5724 5725
5595 5596 5597 5599 5600 5602 5603 5605 5608 5610 5612 5615 5617 5620 5623 5626 5629 5632 5636 5640 5645 5650 5655 5660 5663 5666 5669 5673 5676 5680 5683 5686 5690 5693 5696 5699 5702 5704 5706 5709 5711 5712 5714
5580 5581 5582 5583 5585 5586 5588 5589 5591 5594 5596 5599 5601 5604 5608 5610 5613 5616 5620 5624 5628 5633 5639 5645 5648 5652 5654 5658 5662 5665 5669 5672 5675 5679 5682 5685 5688 5691 5693 5695 5698 5700 5701
5565 5566 5567 5568 5570 5571 5572 5574 5576 5578 5580 5582 5585 5588 5592 5594 5597 5601 5604 5608 5612 5617 5623 5629 5632 5636 5640 5644 5647 5651 5654 5657 5661 5664 5667 5671 5674 5677 5679 5682 5684 5686 5688
5550 5550 5552 5553 5554 5556 5557 5558 5560 5562 5564 5567 5569 5572 5575 5578 5581 5584 5588 5592 5596 5600 5606 5612 5617 5620 5625 5629 5633 5636 5640 5643 5647 5650 5653 5656 5659 5663 5665 5668 5670 5673 5675
5536 5536 5537 5538 5539 5541 5542 5543 5545 5547 5549 5551 5553 5556 5559 5562 5565 5568 5571 5575 5580 5584 5589 5595 5601 5605 5609 5613 5617 5621 5625 5629 5632 5636 5639 5642 5645 5648 5651 5654 5656 5659 5661
5522 5522 5523 5524 5525 5526 5527 5529 5530 5532 5533 5535 5538 5540 5543 5546 5549 5552 5555 5559 5563 5567 5572 5577 5584 5588 5593 5597 5601 5606 5610 5614 5618 5621 5624 5628 5630 5633 5637 5640 5643 5645 5647
5508 5508 5509 5510 5511 5512 5513 5514 5515 5517 5518 5521 5523 5525 5528 5531 5534 5536 5540 5543 5547 5551 5556 5561 5567 5572 5577 5581 5586 5590 5594 5599 5603 5606 5610 5613 5617 5620 5622 5625 5628 5630 5632
5494 5495 5495 5496 5497 5498 5499 5499 5500 5502 5504 5506 5508 5511 5513 5516 5518 5521 5524 5528 5531 5535 5540 5545 5550 5556 5561 5566 5570 5574 5578 5583 5589 5594 5595 5598 5601 5604 5607 5610 5613 5615 5617
5481 5481 5481 5482 5483 5484 5484 5485 5486 5487 5489 5491 5493 5496 5498 5501 5503 5506 5510 5513 5516 5520 5525 5530 5535 5540 5546 5552 5556 5560 5563 5566 5572 5576 5578 5582 5585 5589 5592 5594 5597 5600 5602
5468 5468 5468 5468 5469 5470 5470 5471 5472 5473 5474 5476 5478 5480 5483 5487 5489 5492 5495 5498 5502 5506 5510 5515 5521 5527 5530 5535 5539 5544 5547 5551 5556 5559 5562 5567 5570 5573 5576 5579 5581 5584 5586
5455 5455 5455 5455 5456 5457 5457 5457 5458 5459 5460 5462 5464 5466 5468 5472 5475 5478 5480 5484 5488 5492 5495 5500 5505 5510 5515 5520 5524 5528 5532 5536 5541 5545 5547 5551 5555 5558 5561 5563 5566 5568 5570
5443 5443 5443 5443 5443 5444 5444 5445 5445 5447 5449 5450 5451 5453 5455 5457 5460 5462 5465 5469 5474 5478 5482 5486 5490 5495 5500 5504 5509 5513 5517 5521 5526 5530 5533 5536 5540 5542 5546 5549 5550 5552 5555